Regional Weather Roundup
Issued by NWS Wakefield, VA

Home | Current Version | Previous Version | Text Only | Print | Product List | Glossary On
Versions: 1 2 3 4 5 6 7 8 9 10 11 12 13 14 15 16 17 18 19 20 21 22 23 24 25 26 27 28 29 30 31 32 33 34 35 36 37 38 39 40 41 42 43 44 45 46 47 48 49 50
000
ASUS41 KAKQ 290810
RWRAKQ

REGIONAL WEATHER ROUNDUP
NATIONAL WEATHER SERVICE WAKEFIELD VA
300 AM EST MON DEC 29 2014

Note: "fair" indicates few or no clouds below 12,000 feet with no
significant weather and/or obstructions to visibility. * = Denotes
station may not report precipitation (e.g., rain,snow,etc.),
thunder or fog.

VAZ042-051-052>054-056-290900-
NORTHERN VIRGINIA

CITY           SKY/WX    TMP DP  RH WIND       PRES   REMARKS
WASH NATIONAL  LGT RAIN  45  35  68 N8        30.16R
DULLES         CLOUDY    42  31  64 N8        30.14R
FORT BELVOIR   LGT RAIN  42  38  85 VRB3      30.16R
QUANTICO       LGT RAIN  43  37  79 N7        30.17R
FREDERICKSBRG* LGT RAIN  43  42  97 N8        30.15R
STAFFORD*      RAIN      41  41 100 NE5       30.19R
WARRENTON      DRIZZLE   42  42  97 NE6       30.14R
CULPEPER*      DRIZZLE   43  39  87 CALM      30.15R
MANASSAS*      CLOUDY    41  39  93 N3        30.16R
LEESBURG*      CLOUDY    43  34  70 N5        30.15S
WINCHESTER     CLOUDY    41  27  56 N6        30.15R
FRONT ROYAL*   CLOUDY    41  32  70 CALM      30.14R
LURAY*         CLOUDY    43  36  75 NE7       30.14R
$$

VAZ048-049-060>072-079>083-290900-
CENTRAL AND SOUTH CENTRAL VIRGINIA

CITY           SKY/WX    TMP DP  RH WIND       PRES   REMARKS
RICHMOND       LGT RAIN  49  45  86 N9        30.11R
CHESTERFIELD*  CLOUDY    48  37  66 N6        30.12R
PETERSBURG*    LGT RAIN  50  49  93 N10       30.10S
HANOVER        LGT RAIN  47  44  90 VRB5      30.14R
TAPPAHANNOCK*  CLOUDY    49  41  75 N7        30.13R
QUINTON*       CLOUDY    48  46  93 NE3       30.11R
CHARLOTTSVILLE LGT RAIN  44  41  89 NE9       30.12R
GORDONSVILLE*  CLOUDY    42  40  93 NE6       30.13S
ORANGE*        DRIZZLE   43  41  93 N6        30.15R
LOUISA*        LGT RAIN  45  43  93 NE8       30.12S
BUMPASS*       CLOUDY    43  41  93 NE6       30.14R
FARMVILLE*     LGT RAIN  50  50  99 N5        30.10R
CREWE*         CLOUDY    50  48  94 N3        30.09S
FORT PICKETT*  CLOUDY    50  49  97 NE7       30.10R
CHASE CITY*    CLOUDY    52  52 100 CALM      30.09R
CLARKSVILLE*   CLOUDY    52  52 100 N6        30.06F
SOUTH HILL*    CLOUDY    52  50  93 N10       30.14R
LAWRENCEVILLE* CLOUDY    53  51  94 CALM      30.09R
EMPORIA*       CLOUDY    52  50  93 NW8       30.10R
$$

VAZ088>098-290900-
SOUTHEAST VIRGINIA

CITY           SKY/WX    TMP DP  RH WIND       PRES   REMARKS
NORFOLK        CLOUDY    49  45  86 N10       30.06R
VIRGINIA BEACH CLOUDY    55  51  86 N7        30.05R
NORFOLK NAVAL  CLOUDY    52  44  74 N15       30.09R
WEST POINT*    CLOUDY    52  47  85 N6        30.13R
SALUDA*        CLOUDY    47  44  89 N10       30.11R
NEWPORT NEWS   CLOUDY    54  44  69 N9        30.09R
LANGLEY AFB    CLOUDY    50  45  83 N9        30.08R
FORT EUSTIS    CLOUDY    53  53  99 N8        30.09R
WILLIAMSBURG*  CLOUDY    54  48  82 N6        30.12R
HR EXEC AP*    CLOUDY    55  54  94 N3        30.08R
FRANKLIN*      CLOUDY    54 N/A N/A N3        30.06S
WAKEFIELD      LGT RAIN  54  51  90 N9        30.08R
$$

VAZ020-022-025-037-045-290900-
WEST CENTRAL AND SOUTHWEST VIRGINIA

CITY           SKY/WX    TMP DP  RH WIND       PRES   REMARKS
STAUNTON*      RAIN      43  40  89 NE8       30.12R
WAYNESBORO*    CLOUDY    43  42  98 NW3       30.08F
HOT SPRINGS VA CLOUDY    37  37 100 W3        30.02F
LYNCHBURG      LGT RAIN  47  47 100 CALM      30.09F
DANVILLE       CLOUDY    51  48  89 E5        30.06F
SOUTH BOSTON*  CLOUDY    48  47  95 CALM      30.07F
MARTINSVILLE   RAIN      47  47 100 CALM      30.10R
ROANOKE        LGT RAIN  48  45  89 NE7       30.09S
BLACKSBURG     DRIZZLE   43  43  99 CALM      30.10S
DUBLIN*        RAIN      46  46 100 CALM      30.08S
MARION*        RAIN      47  46  96 W5        30.08F
HILLSVILLE*    LGT RAIN  45  45  99 CALM      30.06S
RICHLANDS*     FOG       41  39  95 NW5       30.08R VSB 1/4
WISE*          FOG       41  41 100 CALM      30.09S VSB 1/4
ABINGDON*      LGT RAIN  48  48 100 CALM      30.07S
$$

MDZ021>025-VAZ099-100-290900-
SOUTHERN MARYLAND AND THE DELMARVA PENINSULA

CITY           SKY/WX    TMP DP  RH WIND       PRES   REMARKS
PATUXENT RIVER LGT RAIN  43  39  86 N10       30.14R
BAY BRIDGE APT DRIZZLE   41  37  87 N3        30.15R
LEONARDTOWN    CLOUDY    41  37  87 NE3       30.16R
DOVER          DRIZZLE   43  41  93 NW8       30.11R
GEORGETOWN     CLOUDY    44  39  82 N5        30.13R
EASTON         DRIZZLE   43  43 100 N6        30.17S
CAMBRIDGE      CLOUDY    43  37  81 N7        30.14R
SALISBURY      LGT RAIN  50  44  80 N10       30.11S
OCEAN CITY     CLOUDY    46  42  86 NE9       30.11S
WALLOPS ISLAND CLOUDY    49  45  86 NE9       30.10R
ACCOMACK*      CLOUDY    50  45  81 N9        30.09R
$$

NCZ012>017-030>032-290900-
NORTH CENTRAL AND EASTERN NORTH CAROLINA

CITY           SKY/WX    TMP DP  RH WIND       PRES   REMARKS
ROANOKE RAPIDS RAIN      54  54 100 N8        30.07R
RALEIGH        LGT RAIN  55  53  93 VRB5      30.06S FOG
ELIZABETH CITY HAZE      60  55  83 CALM      30.05S VSB 1/2
AHOSKIE*       LGT RAIN  54  54  98 N3        30.07R
EDENTON*       CLOUDY    56  56  99 CALM      30.06R FOG
CURRITUCK*     CLOUDY    57  56  95 CALM      30.06R FOG
KILL DEVIL HLS FOG       56  56 100 CALM      30.03F VSB 1/4
MANTEO         CLOUDY    57  57 100 CALM      30.05S
CAPE HATTERAS  CLOUDY    59  58  96 NW6       30.05S
TARBORO*       FOG       54  54  97 CALM      30.08R VSB 1/4
GOLDSBORO      FOG       57  57 100 CALM      30.03S VSB 1
WASHINGTON     CLOUDY    58  58  98 CALM      30.06R
GREENVILLE     FOG       55  55 100 CALM      30.07S VSB 1/4
NEW BERN       FOG       61  58  90 CALM      30.05F VSB 3/4
WILMINGTON     CLOUDY    60  59  96 CALM      30.04F
$$

VAZ048-290900-
ELSEWHERE

CITY           SKY/WX    TMP DP  RH WIND       PRES   REMARKS
HARRISBURG PA  CLOUDY    39  25  57 NW9       30.16R
BALTIMORE      CLOUDY    42  39  89 CALM      30.14R
ANNAPOLIS      LGT RAIN  42  37  82 N3        30.14S
ANDREWS AFB    LGT RAIN  42  39  89 N6        30.14R
PHILADELPHIA   CLOUDY    43  31  62 N13       30.15R
HENDERSON NC   CLOUDY    53  51  94 N6        30.07S
GREENSBORO     LGT RAIN  50  50 100 N5        30.06R FOG
ROCKY MOUNT    LGT RAIN  54  53  97 CALM      30.07R VSB 1
$$

VAZ100-290900-
MARINE

STATION/POSITION TIME  TEMP    WIND        PRES    WAVE   SWELL
                       AIR SEA DIR/SP/G            HT/PER HT/PER
                 (UTC) (F)     (DEG/KT/KT) (MB)    (FT/S) (FT/S)
CAPE MAY NJ      0800   43 47   CALM  /  5 1019.5F
LEWES DE         0800   44 45  340/ 13/ 15 1019.7F
15NM E FENWICK I 0800   44 45              1019.0R   3/ 7
OCEAN-CITY-INLET 0800   46 45   30/  8/ 13 1018.9F
WACHAPREAGUE VA  0800   51 49  360/  5/  7 1018.5R
THOMAS POINT MD  0800   42 43  360/  6/  7 1021.9R
GOOSES REEF MD   0800   43     VRB 14/ 16  1019.7R
COVE POINT MD    0800   42      30/ 16/ 19 1020.5R
SOLOMONS ISLAND  0800      44                N/A
BISHOPS HEAD MD  0800   46 47  360/  6/ 10 1019.4R
PINEY POINT MD   0800           30/ 12/ 14   N/A
POTOMAC MD       0800   46      20/ 16/ 21 1019.3R
CAMBRIDGE MD     0800   43 43  350/  7/  9 1020.3R
LEWISETTA VA     0800   46 45   10/  9/ 13 1020.1R
RAPPAHANNOCK LGT 0800          360/ 18/ 20 1019.5R
STINGRAY PT      0800   46      20/ 17/ 19 1019.8R
YORK RVR RNG VA  0800   49      20/ 17/ 20 1018.1R
YORKTOWN VA      0800   50 46   30/ 16/ 20 1018.6R
JAMESTOWN VA     0800   52      40/  6/ 10   N/A
DOMINION TERM VA 0800   53      50/  4/  7 1018.0R
KIPTOPEKE VA     0800      51   20/  5/  7   N/A
CHES BAY BRIDGE  0800   48 46  350/ 11/ 13 1017.7R
CAPE HENRY VA    0800   50     360/  6/  7 1016.8R
CHESAPEAKE LGHT  0700   51      20/ 13/ 13 1018.0R
WILLOUBY STN VA  0800   50      10/ 12/ 14 1018.6R
S CRANEY ISL VA  0800           20/ 13/ 15 1017.8R
CAPE HENRY BUOY  0800      48                N/A     2/13   2/13
1ST LANDING BUOY 0800   49      10/  6/  8 1017.4R
CAPE CHARLES BUO 0800      48                N/A     2/13   2/13
64NM E OF VA BCH 0800   55 53  330/  4/  4 1016.9R   2/13   2/13
DUCK PIER NC     0800   57 50  240/  4/  5 1016.4F
44100 DUCK FRF   0800      50                N/A     2/13   2/13
44056 DUCK FRF   0800      49                N/A     2/13   2/13
OREGON INLET NC  0800   56 53   CALM  /  1 1017.5F
HATTERAS NC      0800   57 55  320/  4/  5 1018.0S
DIAMOND SHLS NC  0800   64                 1017.4F   3/13
CAPE LOOKOUT NC  0700   58     290/  4/  5 1017.4F
$$



USA.gov is the U.S. government's official web portal to all federal, state and local government web resources and services.